UAE719 OMDB-HKJK

Flight info

Callsign UAE719
Flight time N/A
Altitude 34000
Route ANVIX R401 GIDIS G783 UKRAG/N0486F350 L710 KUKDI/N0486F360 B400 RIGAM B403 BOMIX UB403 MAV UP312 WAV WAJI1A
Aircraft B77W/H-SDE1E2E3FGHIJ2J3J4J5M1RWXY/LB1D1

Departure

Time 2026-04-26 10:02
Airport Dubai International Airport (OMDB)

Arrival

Time N/A
Airport Jomo Kenyatta International Airport (HKJK)
Time Latitude Longitude Altitude Speed Heading
2026-04-26 09:08 25.24153 55.37326 27 ft 0 kts 32°
2026-04-26 09:13 25.24154 55.37326 27 ft 0 kts 32°
2026-04-26 09:13 25.24154 55.37327 27 ft 0 kts 32°
2026-04-26 09:14 25.24155 55.37327 27 ft 0 kts 32°
2026-04-26 09:14 25.24156 55.37327 27 ft 0 kts 32°
2026-04-26 09:15 25.24156 55.37328 27 ft 0 kts 32°
2026-04-26 09:15 25.24157 55.37328 27 ft 0 kts 32°
2026-04-26 09:15 25.24157 55.37329 27 ft 0 kts 32°
2026-04-26 09:16 25.24158 55.37329 26 ft 0 kts 32°
2026-04-26 09:16 25.24159 55.37330 26 ft 0 kts 32°
2026-04-26 09:17 25.24160 55.37330 27 ft 0 kts 32°
2026-04-26 09:17 25.24160 55.37331 27 ft 0 kts 32°
2026-04-26 09:17 25.24161 55.37331 27 ft 0 kts 32°
2026-04-26 09:18 25.24162 55.37332 27 ft 0 kts 32°
2026-04-26 09:18 25.24163 55.37333 27 ft 0 kts 32°
2026-04-26 09:19 25.24164 55.37333 27 ft 0 kts 32°
2026-04-26 09:19 25.24164 55.37334 27 ft 0 kts 32°
2026-04-26 09:19 25.24165 55.37334 27 ft 0 kts 32°
2026-04-26 09:20 25.24166 55.37335 27 ft 0 kts 32°
2026-04-26 09:20 25.24167 55.37335 27 ft 0 kts 32°
2026-04-26 09:21 25.24168 55.37336 27 ft 0 kts 32°
2026-04-26 09:21 25.24169 55.37337 27 ft 0 kts 32°
2026-04-26 09:22 25.24170 55.37337 27 ft 0 kts 32°
2026-04-26 09:22 25.24170 55.37338 27 ft 0 kts 32°
2026-04-26 09:22 25.24168 55.37336 27 ft 1 kts 32°
2026-04-26 09:22 25.24164 55.37333 27 ft 1 kts 32°
2026-04-26 09:23 25.24154 55.37327 27 ft 1 kts 32°
2026-04-26 09:23 25.24153 55.37326 27 ft 0 kts 32°
2026-04-26 09:41 25.24150 55.37323 27 ft 2 kts 32°
2026-04-26 09:41 25.24136 55.37313 26 ft 2 kts 36°
2026-04-26 09:42 25.24123 55.37302 26 ft 2 kts 40°
2026-04-26 09:42 25.24111 55.37290 25 ft 2 kts 46°
2026-04-26 09:42 25.24101 55.37277 25 ft 2 kts 56°
2026-04-26 09:42 25.24093 55.37261 25 ft 2 kts 76°
2026-04-26 09:43 25.24092 55.37243 24 ft 2 kts 106°
2026-04-26 09:43 25.24096 55.37232 25 ft 1 kts 120°
2026-04-26 09:43 25.24096 55.37231 25 ft 0 kts 120°
2026-04-26 09:53 25.24085 55.37253 26 ft 6 kts 121°
2026-04-26 09:53 25.24050 55.37317 27 ft 12 kts 121°
2026-04-26 09:53 25.24006 55.37396 27 ft 12 kts 121°
2026-04-26 09:54 25.23976 55.37480 27 ft 12 kts 98°
2026-04-26 09:54 25.23997 55.37567 27 ft 12 kts 57°
2026-04-26 09:54 25.24057 55.37628 27 ft 12 kts 34°
2026-04-26 09:54 25.24127 55.37678 27 ft 12 kts 32°
2026-04-26 09:55 25.24198 55.37726 27 ft 12 kts 31°
2026-04-26 09:55 25.24269 55.37774 27 ft 12 kts 31°
2026-04-26 09:55 25.24334 55.37819 27 ft 9 kts 34°
2026-04-26 09:55 25.24352 55.37833 27 ft 0 kts 34°
2026-04-26 09:56 25.24354 55.37834 27 ft 2 kts 34°
2026-04-26 09:56 25.24403 55.37871 26 ft 13 kts 35°
2026-04-26 09:56 25.24484 55.37933 27 ft 14 kts 34°
2026-04-26 09:56 25.24560 55.37989 27 ft 11 kts 33°
2026-04-26 09:57 25.24615 55.38030 27 ft 6 kts 33°
2026-04-26 09:57 25.24632 55.38042 27 ft 0 kts 32°
2026-04-26 09:59 25.24636 55.38044 27 ft 2 kts 32°
2026-04-26 09:59 25.24662 55.38062 27 ft 7 kts 31°
2026-04-26 10:00 25.24714 55.38096 27 ft 10 kts 31°
2026-04-26 10:00 25.24775 55.38082 27 ft 10 kts 302°
2026-04-26 10:00 25.24791 55.38048 27 ft 0 kts 299°
2026-04-26 10:01 25.24802 55.38028 27 ft 18 kts 300°
2026-04-26 10:01 25.25008 55.37655 27 ft 95 kts 302°
2026-04-26 10:01 25.25485 55.36808 27 ft 162 kts 302°
2026-04-26 10:01 25.26161 55.35660 472 ft 180 kts 303°
2026-04-26 10:02 25.26786 55.34509 1278 ft 175 kts 302°
2026-04-26 10:02 25.27424 55.33329 1787 ft 181 kts 302°
2026-04-26 10:02 25.28104 55.32101 2236 ft 191 kts 303°
2026-04-26 10:02 25.28811 55.30828 2790 ft 194 kts 302°
2026-04-26 10:03 25.29243 55.29415 3296 ft 205 kts 273°
2026-04-26 10:03 25.28888 55.27795 3496 ft 231 kts 248°
2026-04-26 10:03 25.28155 55.26123 3716 ft 254 kts 246°
2026-04-26 10:03 25.27376 55.24302 4192 ft 267 kts 246°
2026-04-26 10:04 25.26574 55.22428 4861 ft 272 kts 246°
2026-04-26 10:04 25.25775 55.20561 5805 ft 262 kts 246°
2026-04-26 10:04 25.25010 55.18798 6852 ft 250 kts 242°
2026-04-26 10:04 25.23855 55.17384 7392 ft 259 kts 212°
2026-04-26 10:05 25.22133 55.16756 8038 ft 266 kts 187°
2026-04-26 10:05 25.20274 55.16811 8621 ft 270 kts 173°
2026-04-26 10:05 25.18516 55.17598 9102 ft 281 kts 140°
2026-04-26 10:05 25.17350 55.19322 9712 ft 282 kts 117°
2026-04-26 10:06 25.16451 55.21295 10043 ft 298 kts 118°
2026-04-26 10:06 25.15475 55.23365 10476 ft 308 kts 119°
2026-04-26 10:06 25.14466 55.25480 11105 ft 314 kts 119°
2026-04-26 10:06 25.13447 55.27610 11895 ft 316 kts 120°
2026-04-26 10:07 25.12414 55.29766 12695 ft 318 kts 120°
2026-04-26 10:07 25.11376 55.31926 13554 ft 320 kts 121°
2026-04-26 10:07 25.10347 55.34115 14291 ft 324 kts 118°
2026-04-26 10:07 25.09399 55.36402 14972 ft 331 kts 116°
2026-04-26 10:08 25.08459 55.38738 15677 ft 335 kts 116°
2026-04-26 10:08 25.07498 55.41100 16408 ft 340 kts 116°
2026-04-26 10:08 25.06859 55.42691 16829 ft 346 kts 115°
2026-04-26 10:08 25.05887 55.45211 17053 ft 370 kts 114°
2026-04-26 10:09 25.04860 55.47910 17218 ft 393 kts 114°
2026-04-26 10:09 25.03769 55.50764 17411 ft 415 kts 114°
2026-04-26 10:09 25.02620 55.53752 17768 ft 429 kts 114°
2026-04-26 10:09 25.01384 55.56789 18253 ft 439 kts 118°
2026-04-26 10:10 24.99854 55.59716 18806 ft 443 kts 123°
2026-04-26 10:10 24.98193 55.62584 19477 ft 445 kts 124°
2026-04-26 10:10 24.96541 55.65484 20146 ft 449 kts 123°
2026-04-26 10:10 24.94919 55.68439 20759 ft 453 kts 123°
2026-04-26 10:11 24.93261 55.71410 21350 ft 457 kts 126°
2026-04-26 10:11 24.91412 55.74274 21951 ft 460 kts 130°
2026-04-26 10:11 24.89470 55.77087 22548 ft 463 kts 130°
2026-04-26 10:11 24.87513 55.79925 23157 ft 468 kts 130°
2026-04-26 10:12 24.85568 55.82819 23668 ft 472 kts 129°
2026-04-26 10:12 24.83621 55.85754 24120 ft 477 kts 129°
2026-04-26 10:12 24.81646 55.88697 24571 ft 478 kts 131°
2026-04-26 10:12 24.79325 55.91275 24821 ft 475 kts 149°
2026-04-26 10:13 24.76412 55.92929 25213 ft 470 kts 165°
2026-04-26 10:13 24.73254 55.93746 25730 ft 464 kts 179°
2026-04-26 10:13 24.70055 55.93748 26220 ft 460 kts 188°
2026-04-26 10:13 24.66843 55.93528 26640 ft 465 kts 187°
2026-04-26 10:14 24.63617 55.93290 26996 ft 465 kts 192°
2026-04-26 10:14 24.60496 55.92411 27337 ft 463 kts 205°
2026-04-26 10:14 24.57602 55.90873 27765 ft 461 kts 214°
2026-04-26 10:14 24.55051 55.88778 28203 ft 457 kts 225°
2026-04-26 10:15 24.52694 55.86427 28577 ft 461 kts 225°
2026-04-26 10:15 24.50308 55.84051 28936 ft 465 kts 225°
2026-04-26 10:15 24.47890 55.81675 29317 ft 468 kts 224°
2026-04-26 10:15 24.45443 55.79305 29698 ft 471 kts 224°
2026-04-26 10:16 24.42972 55.76933 30072 ft 472 kts 224°
2026-04-26 10:16 24.40496 55.74563 30466 ft 472 kts 225°
2026-04-26 10:16 24.38024 55.72197 30879 ft 472 kts 225°
2026-04-26 10:16 24.35649 55.69915 31222 ft 472 kts 225°
2026-04-26 10:17 24.33313 55.67659 31552 ft 473 kts 226°
2026-04-26 10:17 24.30841 55.65270 31917 ft 474 kts 226°
2026-04-26 10:17 24.28267 55.62990 32252 ft 480 kts 220°
2026-04-26 10:17 24.25384 55.61083 32483 ft 489 kts 213°
2026-04-26 10:18 24.22272 55.59517 32783 ft 495 kts 207°
2026-04-26 10:18 24.18974 55.58361 33111 ft 502 kts 201°
2026-04-26 10:18 24.15586 55.57404 33414 ft 504 kts 200°
2026-04-26 10:18 24.12183 55.56462 33694 ft 505 kts 200°
2026-04-26 10:19 24.08767 55.55494 33843 ft 509 kts 201°
2026-04-26 10:19 24.05337 55.54491 33889 ft 510 kts 201°
2026-04-26 10:19 23.98515 55.52467 33897 ft 505 kts 201°
2026-04-26 10:20 23.91763 55.50454 33898 ft 502 kts 201°
2026-04-26 10:20 23.85029 55.48450 33904 ft 501 kts 201°
2026-04-26 10:21 23.78303 55.46447 33894 ft 501 kts 202°
2026-04-26 10:21 23.71566 55.44438 33891 ft 502 kts 201°
2026-04-26 10:22 23.64807 55.42425 33891 ft 504 kts 201°
2026-04-26 10:22 23.58035 55.40412 33894 ft 505 kts 201°
2026-04-26 10:23 23.51156 55.39336 33893 ft 520 kts 185°
2026-04-26 10:23 23.43930 55.40474 33885 ft 533 kts 168°
2026-04-26 10:24 23.36867 55.42776 33881 ft 534 kts 167°
2026-04-26 10:24 23.29753 55.45101 33881 ft 534 kts 167°
2026-04-26 10:25 23.22619 55.47370 33880 ft 534 kts 167°
2026-04-26 10:25 23.15486 55.49615 33871 ft 534 kts 167°
2026-04-26 10:26 23.08361 55.51861 33874 ft 533 kts 167°
2026-04-26 10:26 23.01239 55.54098 33874 ft 532 kts 167°
2026-04-26 10:27 22.94109 55.56276 33862 ft 532 kts 167°
2026-04-26 10:27 22.86983 55.58439 33868 ft 532 kts 167°
2026-04-26 10:28 22.79864 55.60608 33869 ft 532 kts 167°
2026-04-26 10:28 22.72743 55.62780 33863 ft 532 kts 167°
2026-04-26 10:29 22.65617 55.64937 33855 ft 531 kts 169°
2026-04-26 10:29 22.58360 55.65869 33862 ft 522 kts 185°
2026-04-26 10:30 22.51199 55.65102 33862 ft 516 kts 194°
2026-04-26 10:30 22.44116 55.63816 33851 ft 516 kts 194°
2026-04-26 10:31 22.37010 55.62559 33842 ft 518 kts 194°
2026-04-26 10:31 22.29882 55.61338 33848 ft 520 kts 193°
2026-04-26 10:32 22.22725 55.60128 33846 ft 521 kts 193°
2026-04-26 10:32 22.15558 55.58918 33845 ft 521 kts 193°
2026-04-26 10:33 22.08389 55.57706 33842 ft 522 kts 193°
2026-04-26 10:33 22.01266 55.56502 33838 ft 522 kts 193°
2026-04-26 10:34 21.94038 55.55281 33844 ft 522 kts 193°
2026-04-26 10:34 21.86914 55.54079 33837 ft 522 kts 193°
2026-04-26 10:35 21.79744 55.52870 33850 ft 522 kts 193°
2026-04-26 10:35 21.72569 55.51662 33843 ft 522 kts 193°
2026-04-26 10:36 21.65397 55.50455 33835 ft 522 kts 193°
2026-04-26 10:36 21.58222 55.49249 33846 ft 522 kts 193°
2026-04-26 10:37 21.51040 55.48043 33840 ft 522 kts 193°
2026-04-26 10:37 21.43854 55.46839 33852 ft 523 kts 193°
2026-04-26 10:38 21.36656 55.45632 33849 ft 524 kts 193°
2026-04-26 10:38 21.29450 55.44425 33850 ft 525 kts 193°
2026-04-26 10:39 21.22234 55.43218 33852 ft 525 kts 193°
2026-04-26 10:39 21.15024 55.42015 33834 ft 524 kts 193°
2026-04-26 10:40 21.07811 55.40811 33833 ft 524 kts 193°
2026-04-26 10:40 21.00609 55.39610 33843 ft 524 kts 193°
2026-04-26 10:41 20.93398 55.38409 33839 ft 524 kts 193°
2026-04-26 10:41 20.86181 55.37208 33841 ft 525 kts 193°
2026-04-26 10:42 20.79006 55.36015 33834 ft 526 kts 193°
2026-04-26 10:42 20.71777 55.34814 33831 ft 526 kts 192°
2026-04-26 10:43 20.64534 55.33612 33836 ft 527 kts 192°
2026-04-26 10:43 20.57286 55.32411 33839 ft 527 kts 192°
2026-04-26 10:44 20.50034 55.31210 33851 ft 528 kts 192°
2026-04-26 10:44 20.42777 55.30009 33842 ft 528 kts 192°
2026-04-26 10:45 20.35518 55.28810 33841 ft 528 kts 192°
2026-04-26 10:45 20.28257 55.27611 33842 ft 528 kts 192°
2026-04-26 10:46 20.20995 55.26413 33845 ft 528 kts 192°
2026-04-26 10:46 20.13728 55.25215 33844 ft 528 kts 192°
2026-04-26 10:47 20.06468 55.24020 33846 ft 528 kts 192°
2026-04-26 10:47 19.99206 55.22825 33848 ft 528 kts 192°
2026-04-26 10:48 19.91940 55.21631 33845 ft 528 kts 192°
2026-04-26 10:48 19.84678 55.20438 33847 ft 528 kts 192°
2026-04-26 10:49 19.77412 55.19246 33848 ft 528 kts 192°
2026-04-26 10:49 19.70140 55.18055 33847 ft 529 kts 192°
2026-04-26 10:50 19.64103 55.17066 33852 ft 529 kts 192°
2026-04-26 10:50 19.55592 55.15673 33849 ft 529 kts 191°
2026-04-26 10:51 19.44678 55.13890 33850 ft 529 kts 191°
2026-04-26 10:52 19.37397 55.12701 33849 ft 529 kts 191°
2026-04-26 10:52 19.30117 55.11514 33858 ft 529 kts 191°
2026-04-26 10:53 19.22835 55.10327 33859 ft 530 kts 191°
2026-04-26 10:53 19.15550 55.09142 33858 ft 530 kts 191°
2026-04-26 10:54 19.04666 55.07372 33858 ft 530 kts 191°
2026-04-26 10:54 18.97376 55.06188 33857 ft 530 kts 191°
2026-04-26 10:55 18.90082 55.05004 33857 ft 530 kts 191°
2026-04-26 10:55 18.83973 55.04014 33859 ft 530 kts 191°
2026-04-26 10:56 18.75493 55.02640 33857 ft 531 kts 191°
2026-04-26 10:56 18.68195 55.01458 33857 ft 531 kts 191°
2026-04-26 10:57 18.62127 55.00477 33857 ft 531 kts 191°
2026-04-26 10:57 18.54820 54.99296 33860 ft 531 kts 191°
2026-04-26 10:58 18.47524 54.98119 33863 ft 531 kts 191°
2026-04-26 10:58 18.40186 54.96934 34190 ft 534 kts 191°
2026-04-26 10:59 18.36520 54.96343 34587 ft 531 kts 191°
2026-04-26 10:59 18.32879 54.95757 34999 ft 528 kts 191°
2026-04-26 10:59 18.29253 54.95174 35408 ft 525 kts 191°
2026-04-26 10:59 18.25648 54.94594 35780 ft 524 kts 191°
2026-04-26 11:00 18.18399 54.93426 35868 ft 529 kts 191°
2026-04-26 11:00 18.11145 54.92260 35866 ft 525 kts 190°
2026-04-26 11:01 18.03924 54.91100 35865 ft 525 kts 190°
2026-04-26 11:01 17.96700 54.89940 35867 ft 525 kts 190°
2026-04-26 11:02 17.89473 54.88781 35862 ft 526 kts 190°
2026-04-26 11:02 17.82284 54.87629 35873 ft 526 kts 190°
2026-04-26 11:03 17.75043 54.86470 35883 ft 527 kts 190°
2026-04-26 11:03 17.67798 54.85310 35880 ft 527 kts 190°
2026-04-26 11:04 17.60542 54.84151 35889 ft 527 kts 190°
2026-04-26 11:04 17.53286 54.82992 35914 ft 527 kts 190°
2026-04-26 11:05 17.46027 54.81833 35907 ft 528 kts 190°
2026-04-26 11:05 17.38766 54.80675 35923 ft 528 kts 190°
2026-04-26 11:06 17.31511 54.79451 35917 ft 527 kts 194°
2026-04-26 11:06 17.24623 54.76972 35933 ft 522 kts 207°
2026-04-26 11:07 17.18372 54.73181 35945 ft 518 kts 216°
2026-04-26 11:07 17.12343 54.69035 35923 ft 519 kts 216°
2026-04-26 11:08 17.06287 54.64936 35943 ft 519 kts 216°
2026-04-26 11:08 17.00199 54.60871 35923 ft 519 kts 216°
2026-04-26 11:09 16.94154 54.56841 35923 ft 519 kts 216°
2026-04-26 11:09 16.88074 54.52784 35911 ft 519 kts 216°
2026-04-26 11:10 16.81984 54.48722 35904 ft 519 kts 216°
2026-04-26 11:10 16.75890 54.44658 35901 ft 520 kts 216°
2026-04-26 11:11 16.69795 54.40595 35899 ft 520 kts 216°
2026-04-26 11:11 16.63698 54.36534 35899 ft 520 kts 216°
2026-04-26 11:12 16.57597 54.32474 35901 ft 520 kts 215°
2026-04-26 11:12 16.51491 54.28414 35903 ft 521 kts 215°
2026-04-26 11:13 16.45381 54.24354 35898 ft 521 kts 215°
2026-04-26 11:13 16.39269 54.20295 35905 ft 521 kts 215°
2026-04-26 11:14 16.33155 54.16239 35902 ft 521 kts 215°
2026-04-26 11:14 16.27044 54.12187 35900 ft 521 kts 215°
2026-04-26 11:15 16.20932 54.08137 35904 ft 521 kts 215°
2026-04-26 11:15 16.14814 54.04087 35910 ft 521 kts 215°
2026-04-26 11:16 16.08692 54.00036 35903 ft 522 kts 215°
2026-04-26 11:16 16.02612 53.96017 35903 ft 521 kts 215°
2026-04-26 11:17 15.96488 53.91971 35905 ft 521 kts 215°
2026-04-26 11:17 15.90367 53.87929 35908 ft 521 kts 215°
2026-04-26 11:18 15.84251 53.83880 35905 ft 521 kts 215°